This demonstration page uses our WeatherBlox Daily Observations layout. Learn more.

Left ArrowRight Arrow

41.55636, -103.73856

Hourly Observations for November 7, 2019

Temp ( °F °C ) Dew Point ( °F °C ) Humidity (%) Winds ( mph kmh ) Pressure ( in mb ) Visibility ( mi km ) Precip ( " mm )
12:58 am 00:58 Cloudy with Light Snow 22 -5.8 21 -6.2 97 97 E 8 13 30.59 1036 4 6.43736 N/A
1:58 am 01:58 Cloudy with Mist and Fog 21 -6.1 20 -6.7 96 96 E 6 9 30.58 1036 5 8.0467 N/A
2:58 am 02:58 Cloudy with Mist and Fog 21 -6.2 20 -6.7 96 96 E 3 6 30.58 1036 3 4.82802 N/A
4:58 am 04:58 Cloudy 21 -5.9 20 -6.4 96 96 N N/A 30.63 1037 10 16.0934 N/A
5:58 am 05:58 Cloudy 22 -5.5 21 -6 96 96 SSE 3 6 30.62 1037 10 16.0934 N/A
6:58 am 06:58 Cloudy 23 -4.9 22 -5.4 96 96 N N/A 30.61 1037 10 16.0934 N/A
7:58 am 07:58 Cloudy 24 -4.6 23 -5.1 96 96 SSW 3 6 30.59 1036 10 16.0934 N/A
8:58 am 08:58 Mostly Cloudy 25 -4.1 24 -4.7 96 96 SSW 5 7 30.58 1035 10 16.0934 N/A
9:58 am 09:58 Mostly Clear 22 -5.3 21 -5.9 96 96 W 6 9 30.57 1035 10 16.0934 N/A
10:58 am 10:58 Clear with Mist and Fog 19 -7 19 -7.1 99 99 W 3 6 30.58 1036 6 9.65604 N/A
11:58 am 11:58 Clear 23 -4.9 21 -5.9 93 93 WSW 6 9 30.57 1035 10 16.0934 N/A
12:58 pm 12:58 Clear 23 -5.1 21 -6.1 93 93 W 7 11 30.57 1035 10 16.0934 N/A
1:58 pm 13:58 Sunny 20 -6.9 20 -6.9 100 100 WSW 6 9 30.59 1036 10 16.0934 N/A
2:58 pm 14:58 Sunny 21 -5.9 21 -5.9 100 100 N N/A 30.58 1036 10 16.0934 N/A
3:58 pm 15:58 Mostly Cloudy 29 -1.4 29 -1.8 97 97 SW 9 15 30.55 1035 10 16.0934 N/A
4:58 pm 16:58 Sunny 33 0.4 31 -0.6 93 93 SW 12 19 30.54 1034 10 16.0934 N/A
5:58 pm 17:58 Sunny 37 2.6 30 -1.3 76 76 SW 7 11 30.51 1033 10 16.0934 N/A
6:58 pm 18:58 Sunny 40 4.2 28 -2.1 64 64 S 6 9 30.45 1031 10 16.0934 N/A
7:58 pm 19:58 Sunny 44 6.4 27 -2.9 52 52 SW 3 6 30.41 1030 10 16.0934 N/A
8:58 pm 20:58 Sunny 47 8.2 19 -7.1 33 33 N N/A 30.38 1029 10 16.0934 N/A
9:58 pm 21:58 Sunny 48 8.8 20 -6.7 33 33 S 5 7 30.38 1029 10 16.0934 N/A
10:58 pm 22:58 Sunny 44 6.9 26 -3.1 49 49 E 7 11 30.39 1029 10 16.0934 N/A
11:58 pm 23:58 Clear 37 2.6 26 -3.6 64 64 ESE 12 19 30.4 1030 10 16.0934 N/A

Powered by AerisWeather